Regional Weather Roundup
Issued by NWS

Home | Current Version | Previous Version | Graphics & Text | Print | Product List | Glossary Off
Versions: 1 2 3 4 5 6 7 8 9 10 11 12 13 14 15 16 17 18 19 20 21 22 23 24 25 26 27 28 29 30 31 32 33 34 35 36 37 38 39 40 41 42 43 44 45 46 47 48 49 50

000
ASUS43 KMPX 210001
RWRMN
WEATHER ROUNDUP FOR MINNESOTA
NATIONAL WEATHER SERVICE TWIN CITIES/CHANHASSEN MN
700 PM CDT FRI APR 20 2018


NOTE: "FAIR" INDICATES FEW OR NO CLOUDS BELOW 12,000 FEET WITH NO
SIGNIFICANT WEATHER AND/OR OBSTRUCTIONS TO VISIBILITY. N/A MEANS
CURRENT SKY AND/OR WEATHER CONDITIONS ARE NOT AVAILABLE.

MNZ060>063-068>070-210100-
   Twin Cities Metro

CITY           SKY/WX    TMP DP  RH WIND       PRES   REMARKS
TWIN CITIES    CLOUDY    50  22  33 S9        30.43R
6HR MIN TEMP:  48; 6HR MAX TEMP:  53;

ST PAUL        FAIR      47  27  45 S6        30.44R
CRYSTAL        FAIR      49  21  33 S7        30.42R
BLAINE         CLOUDY    50  19  29 S5        30.42R
LAKEVILLE      FAIR      45  27  49 S5        30.43R
EDEN PRAIRIE   FAIR      48  25  40 SW8       30.42R
6HR MIN TEMP:  48; 6HR MAX TEMP:  51;

SOUTH ST PAUL  FAIR      49  25  38 CALM      30.43R
LAKE ELMO      FAIR      46  30  53 S5        30.43R
$$
MNZ001>005-007-008-013>017-022>024-027-028-210100-
   Northwest Minnesota

CITY           SKY/WX    TMP DP  RH WIND       PRES   REMARKS
BEMIDJI        FAIR      54  26  34 S6        30.35R
HALLOCK        FAIR      54  36  50 S12       30.35R
ROSEAU         FAIR      54  36  50 SW8       30.35S
WARROAD        FAIR      55  34  44 W7        30.35S
THIEF RVR FALL FAIR      54  33  45 VRB5      30.36S
CROOKSTON      FAIR      55  36  47 S10       30.36S
FOSSTON        FAIR      55  27  33 SW6       30.36S
DETROIT LAKES  FAIR      52  21  30 CALM      30.39S
MOORHEAD       FAIR      54  32  43 S9        30.38R
PARK RAPIDS    FAIR      51  26  37 S6        30.37R
MAHNOMEN       FAIR      53  29  39 SW12      30.36S
$$
MNZ006-009>011-018-025>026-210100-
   North Central Minnesota

CITY           SKY/WX    TMP DP  RH WIND       PRES   REMARKS
BAUDETTE       FAIR      55  28  35 N8        30.34R
FLAG ISLAND    FAIR      41  27  56 S9        30.33R
INTL FALLS     FAIR      56  21  25 NE5       30.33S
6HR MIN TEMP:  54; 6HR MAX TEMP:  59;

WASKISH        FAIR      54  28  37 W5        30.35S
BIG FORK       FAIR      55  19  24 CALM      30.35R
LONGVILLE      FAIR      54  21  28 CALM      30.37S
GRAND RAPIDS   FAIR      54  24  31 W5        30.38R
CRANE LAKE     FAIR      55  12  18 CALM      30.36R
ORR            FAIR      55  16  21 CALM      30.32S
COOK           FAIR      57  18  21 W3        30.35S
WALKER         FAIR      53  24  33 S3        30.37R
$$
MNZ012-019>021-037-210100-
   Northeast Minnesota

CITY           SKY/WX    TMP DP  RH WIND       PRES   REMARKS
DULUTH         FAIR      53  26  35 S8        30.37R
6HR MIN TEMP:  53; 6HR MAX TEMP:  56;

ELY            FAIR      55  10  16 W3        30.34S
HIBBING        FAIR      54  21  27 W5        30.35R
EVELETH        FAIR      55  21  27 W5        30.36S
DULUTH HARBOR  FAIR      55  21  26 CALM      30.39R
TWO HARBORS    FAIR      57  30  35 S8        30.35S
SILVER BAY     FAIR      54  19  26 S6        30.35R
GRAND MARAIS     N/A     38  31  76 CALM      30.38F
G MARAIS ARPRT FAIR      46  10  23 S5        30.38R
$$
MNZ029>031-032-039>041-046>048-054>057-064-210100-
   West Central Minnesota

CITY           SKY/WX    TMP DP  RH WIND       PRES   REMARKS
FERGUS FALLS   FAIR      52  34  50 S9        30.37R
WHEATON        CLOUDY    46  36  66 S9        30.42R
MORRIS         CLOUDY    48  39  71 S10       30.40R
ALEXANDRIA     FAIR      51  30  44 S6        30.41R
ELBOW LAKE     FAIR      49  36  61 SE8       30.40R
WADENA         FAIR      48  27  43 SE6       30.39S
GLENWOOD       FAIR      48  36  61 S8        30.42R
APPLETON       CLOUDY    43  32  65 S7        30.42R
BENSON         CLOUDY    48  36  61 SW9       30.44R
ORTONVILLE     CLOUDY    43  34  70 SE7       30.40S
MADISON        CLOUDY    43  36  75 SE7       30.41S
WILLMAR        FAIR      45  36  70 S6        30.45S
$$
MNZ033>034-036-042>043-049>051-058-059-210100-
   Central Minnesota

CITY           SKY/WX    TMP DP  RH WIND       PRES   REMARKS
ST CLOUD       FAIR      47  25  42 S7        30.42R
6HR MIN TEMP:  47; 6HR MAX TEMP:  51;

SAUK CENTRE    FAIR      47  31  53 S6        30.41R
PAYNESVILLE    FAIR      46  29  51 S7        30.43R
AITKIN         FAIR      48  18  29 S7        30.38R
PINE RIVER     FAIR      50  23  34 S5        30.41R
BRAINERD       FAIR      51  19  28 S8        30.40R
STAPLES        FAIR      48  18  29 SW3       30.40R
LONG PRAIRIE   FAIR      46  28  49 S7        30.41R
LITTLE FALLS   FAIR      48  14  25 S3        30.41S
LITCHFIELD     FAIR      45  28  53 CALM      30.44R
BUFFALO        FAIR      45  27  49 SW3       30.44R
MAPLE LAKE     FAIR      46  29  53 SW3       30.44R
HUTCHINSON     FAIR      44  31  62 CALM      30.45R
$$
MNZ037-044-045-052-053-210100-
   East Central Minnesota

CITY           SKY/WX    TMP DP  RH WIND       PRES   REMARKS
PRINCETON      FAIR      50  19  29 CALM      30.43R
MORA           FAIR      48  21  34 SW5       30.43R
CAMBRIDGE      FAIR      52  30  43 CALM      30.42R
RUSH CITY      FAIR      51  22  32 CALM      30.41S
MOOSE LAKE     FAIR      52  23  32 SW7       30.38R
HINCKLEY       FAIR      50  25  37 S6        30.41R
CLOQUET        FAIR      52  18  25 S7        30.38R
MCGREGOR       FAIR      50  23  34 SW3       30.39R
$$
MNZ071>073-080-081-089-090-097-098-210100-
   Southwest Minnesota

CITY           SKY/WX    TMP DP  RH WIND       PRES   REMARKS
MONTEVIDEO     CLOUDY    43  32  65 S8        30.43R
GRANITE FALLS  CLOUDY    42  36  78 SE8       30.44S
CANBY          CLOUDY    40  34  80 E3        30.42S
MARSHALL       PTSUNNY   39  32  76 SE6       30.42S
REDWOOD FALLS  CLOUDY    39  32  76 SE7       30.43R
OLIVIA         CLOUDY    45  32  61 S7        30.43R
PIPESTONE      CLOUDY   N/A N/A N/A SE6       30.38F
WINDOM         MOSUNNY   37  21  52 CALM      30.42S
WORTHINGTON    CLOUDY    37  33  85 E6        30.41S
JACKSON        CLOUDY    36  30  80 E6        30.42S
TRACY          MOSUNNY   39  33  81 SE3       30.41S
SLAYTON        CLOUDY    37  32  83 SE7       30.41S
$$
MNZ065>067-074>077-082>085-091>093-210100-
   South Central Minnesota

CITY           SKY/WX    TMP DP  RH WIND       PRES   REMARKS
MANKATO        FAIR      43  24  47 CALM      30.44R
NEW ULM        CLOUDY    43  27  52 S3        30.44S
ST JAMES       CLOUDY    37  30  75 SE3       30.45S
FAIRMONT       CLOUDY    39  29  67 NE5       30.43S
GLENCOE        FAIR      44  32  61 CALM      30.43R
OWATONNA       FAIR      45  28  53 SE3       30.44R
WASECA         FAIR      41  28  60 SE5       30.44R
ALBERT LEA     FAIR      41  23  48 CALM      30.43S
$$
MNZ078>079-086>088-094>096-210100-
   Southeast Minnesota

CITY           SKY/WX    TMP DP  RH WIND       PRES   REMARKS
ROCHESTER      FAIR      42  28  57 SW5       30.43R
6HR MIN TEMP:  42; 6HR MAX TEMP:  45;

RED WING       FAIR      50  12  22 S3        30.43R
STANTON        FAIR      43  32  65 CALM      30.43R
DODGE CENTER   FAIR      43  28  56 CALM      30.44R
WINONA         FAIR      52  27  37 CALM      30.41R
AUSTIN         FAIR      43  23  45 CALM      30.43S
PRESTON        FAIR      43  17  35 CALM      30.43S
$$
ABBREVIATIONS USED IN REMARKS
   TC - TEMPERATURES IN CELSIUS
  WCI - WIND CHILL INDEX
   HX - HEAT INDEX
  VSB - VISIBILITY
$$




USA.gov is the U.S. government's official web portal to all federal, state and local government web resources and services.